This is the latest recevied weather packets stored in our database for station/object W4FXD. If no packets are shown the sender has not sent any weather packets the latest 10 day(s).
| Time | Temp. | Humidity | Pressure | Rain* | Wind** | Luminosity | Snow |
|---|---|---|---|---|---|---|---|
| 1777766604 | 13.33° C | 54% | 1015.4 hPa | 0 mm | - | 8 W/m² | - |
| 1777766301 | 13.33° C | 53% | 1015.1 hPa | 0 mm | - | 10 W/m² | - |
| 1777765998 | 13.89° C | 52% | 1015.1 hPa | 0 mm | - | 14 W/m² | - |
| 1777765695 | 13.89° C | 51% | 1015.1 hPa | 0 mm | - | 17 W/m² | - |
| 1777765391 | 13.89° C | 51% | 1015.1 hPa | 0 mm | - | 18 W/m² | - |
| 1777765088 | 13.89° C | 51% | 1015.2 hPa | 0 mm | - | 19 W/m² | - |
| 1777764784 | 14.44° C | 51% | 1015 hPa | 0 mm | - | 21 W/m² | - |
| 1777764481 | 14.44° C | 50% | 1015 hPa | 0 mm | - | 22 W/m² | - |
| 1777764178 | 14.44° C | 51% | 1014.9 hPa | 0 mm | - | 23 W/m² | - |
| 1777763874 | 15° C | 49% | 1015 hPa | 0 mm | - | 28 W/m² | - |
| 1777763572 | 15° C | 51% | 1014.8 hPa | 0 mm | - | 31 W/m² | - |
| 1777763270 | 15° C | 49% | 1014.7 hPa | 0 mm | - | 30 W/m² | - |
| 1777762968 | 15° C | 49% | 1014.9 hPa | 0 mm | - | 39 W/m² | - |
| 1777762665 | 15° C | 48% | 1014.8 hPa | 0 mm | - | 70 W/m² | - |
| 1777762362 | 15° C | 47% | 1015 hPa | 0 mm | - | 67 W/m² | - |
| 1777762058 | 15° C | 48% | 1015.1 hPa | 0 mm | - | 71 W/m² | - |
| 1777761754 | 15.56° C | 49% | 1015.2 hPa | 0 mm | - | 72 W/m² | - |
| 1777761452 | 15.56° C | 46% | 1014.9 hPa | 0 mm | - | 69 W/m² | - |
| 1777761150 | 15.56° C | 45% | 1015 hPa | 0 mm | - | 63 W/m² | - |
| 1777760847 | 15.56° C | 45% | 1014.8 hPa | 0 mm | - | 62 W/m² | - |
| 1777760544 | 15.56° C | 44% | 1014.7 hPa | 0 mm | - | 72 W/m² | - |
| 1777760240 | 16.11° C | 44% | 1014.7 hPa | 0 mm | - | 108 W/m² | - |
| 1777759937 | 15.56° C | 44% | 1014.5 hPa | 0 mm | - | 89 W/m² | - |
| 1777759633 | 15.56° C | 46% | 1014.6 hPa | 0 mm | - | 91 W/m² | - |
| 1777759329 | 15.56° C | 46% | 1014.7 hPa | 0 mm | - | 89 W/m² | - |
* Rain latest hour (hover to see other rain measurements)
** Current wind speed in m/s (hover to see current wind gust speed)